Regional Weather Roundup
Issued by NWS Bismarck, ND

Current Version | Previous Version | Text Only | Print | Product List | Glossary On
Versions: 1 2 3 4 5 6 7 8 9 10 11 12 13 14 15 16 17 18 19 20 21 22 23 24 25 26 27 28 29 30 31 32 33 34 35 36 37 38 39 40 41 42 43 44 45 46 47 48 49 50
000
ASUS43 KBIS 070610
RWRBIS

NWR BROADCAST TEXT
NATIONAL WEATHER SERVICE BISMARCK ND
1200 AM CST SUN MAR 07 2021

NOTE: "FAIR" INDICATES FEW OR NO CLOUDS BELOW 12,000 FEET WITH NO
SIGNIFICANT WEATHER AND/OR OBSTRUCTIONS TO VISIBILITY.


CITY           SKY/WX    TMP DP  RH WIND       PRES   REMARKS
WILLISTON      MOCLDY    41  25  53 SW6       29.58F
MINOT          MOCLDY    45  37  73 SE13      29.60F
MINOT AFB      MOCLDY    40  39  93 SE9       29.59F
BISMARCK       MOCLDY    46  37  71 S23G36    29.62F
DICKINSON      MOCLDY    42  28  57 SW10      29.59R
GARRISON         N/A     43  36  76 SE9       29.60F
HETTINGER ARPT CLOUDY    42  24  49 NW7       29.63R
JAMESTOWN      MOCLDY    38  32  79 SE20      29.78F
CARRINGTON     FAIR      37  36  93 SE29G36   29.75F
HAZEN          FAIR      46  39  76 S28G36    29.58F
MANDAN         MOCLDY    45  39  81 SE21G29   29.63F
OAKES          FAIR      41  37  87 SE16      29.85F
RUGBY          FAIR      39  37  93 SE23G31   29.66F
STANLEY        FAIR      43  43 100 S9        29.60F
TIOGA          FAIR      41  34  75 S10       29.60S
WATFORD CITY   FAIR      43  28  56 CALM      29.60S
$$

CITY           SKY/WX    TMP DP  RH WIND       PRES   REMARKS
GRAND FORKS    MOCLDY    36  25  64 SE20G29   29.91F
GRAND FORKS AF MOCLDY    37  31  78 S21G28    29.89F
DEVILS LAKE      N/A     38  32  79 SE29G37   29.74F
FARGO          MOCLDY    40  31  70 SE24G43   29.94F
CANDO          FAIR      37  37 100 SE21G28   29.75F
CAVALIER       MOCLDY    37  27  65 SE20      29.87F
GWINNER        CLEAR     37  37 100 SE23      29.87F
LANGDON        FAIR      36  36 100 SE26G36   29.80F
ROLLA          FAIR      36  36 100 SE13      29.73F
WALHALLA       FAIR      37  36  93 SE20G29   29.84F
$$

CITY           SKY/WX    TMP DP  RH WIND       PRES   REMARKS
ABERDEEN       MOCLDY    46  36  68 S25G36    29.84F
MOBRIDGE       MOCLDY    48  31  51 MISG      29.66F
BUFFALO          N/A     45  24  43 W15       29.64R
RAPID CITY     MOCLDY    52  22  30 W3        29.73S
GLASGOW        PTCLDY    42  27  55 W13       29.71R
SIDNEY         PTCLDY    48  25  40 W21       29.61R
WOLF POINT     PTCLDY    38  26  62 W13       29.68R
GLENDIVE       CLEAR     46  23  40 W20G28    29.67R
MILES CITY     MOCLDY    49  26  41 NW12      29.73R
BAKER          PTCLDY    35  23  61 W3        29.70R
$$

CITY           SKY/WX    TMP DP  RH WIND       PRES   REMARKS
BILLINGS       PTCLDY    42  30  62 NW10      29.84R
GREAT FALLS    PTCLDY    32  20  61 NW7       29.87R
REGINA         CLOUDY    34  34 100 SW9       29.55R
ESTEVAN        PTCLDY    37  32  81 SE7       29.56F
$$





USA.gov is the U.S. government's official web portal to all federal, state and local government web resources and services.